Snowmass, USA 16 day weather forecast

Slopes altitude range 2470 m - 3815m

Number of lifts: 17 Pistes: 241km

In some cases the lift and piste totals shown are for the ski domain (e.g. Three Valleys) rather than individual resort (e.g. Courchevel)

Overview

The 16 day weather forecast is fully updated 4 times every day.

    • Sat 20 APR 2019
    • Sat 20
    • -2C -1C
    • Sun 21 APR 2019
    • Sun 21
    • -3C -1C
    • Mon 22 APR 2019
    • Mon 22
    • -5C -4C
    • Tue 23 APR 2019
    • Tue 23
    • -4C -3C
    • Wed 24 APR 2019
    • Wed 24
    • -4C -3C
    • Thu 25 APR 2019
    • Thu 25
    • -2C -1C
    • Fri 26 APR 2019
    • Fri 26
    • 0C 1C
    • Sat 27 APR 2019
    • Sat 27
    • 0C 2C
    • Sun 28 APR 2019
    • Sun 28
    • 0C 1C
    • Mon 29 APR 2019
    • Mon 29
    • 0C 2C
    • Tue 30 APR 2019
    • Tue 30
    • 1C 13C
    • Wed 01 MAY 2019
    • Wed 01
    • 5C 11C
    • Thu 02 MAY 2019
    • Thu 02
    • 3C 7C
    • Fri 03 MAY 2019
    • Fri 03
    • 2C 4C
    • Sat 04 MAY 2019
    • Sat 04
    • 2C 5C
    • Sun 05 MAY 2019
    • Sun 05
    • -2C 4C

Date:

Time Type 0°C level Temp Chill Snow Cloud Speed Gust Dir Press
3:00 3586m 0°C 0_2 0cm 0% 2mph 3mph 1017mB
6:00 3210m -1°C -1_4 0cm 0% 4mph 5mph 1019mB
9:00 3107m -2°C -2_5 0cm 15% 5mph 6mph 1018mB
12:00 3067m -1°C -1_5 0cm 7% 5mph 6mph 1017mB
15:00 3902m 4°C 4_5 0cm 16% 5mph 7mph 1014mB
18:00 4034m 8°C 8_9 0cm 55% 9mph 18mph 1009mB
21:00 3985m 8°C 8_16 1cm 100% 16mph 15mph 1007mB
0:00 3596m 3°C 3_7 1cm 100% 7mph 8mph 1008mB
3:00 3170m -1°C -1_3 0cm 100% 3mph 4mph 1011mB
6:00 2926m -3°C -3_4 1cm 84% 4mph 4mph 1011mB
9:00 2964m -3°C -3_3 0cm 70% 3mph 4mph 1010mB
12:00 3040m -1°C -1_2 0cm 81% 2mph 3mph 1011mB
15:00 3402m 1°C 1_5 0cm 79% 5mph 5mph 1010mB
18:00 3589m 4°C 4_7 0cm 84% 7mph 10mph 1009mB
21:00 3586m 3°C 3_6 4cm 100% 6mph 7mph 1008mB
0:00 3490m 2°C 2_4 7cm 100% 4mph 4mph 1008mB
3:00 2880m -3°C -3_3 0cm 100% 3mph 3mph 1012mB
6:00 2725m -4°C -4_5 0cm 58% 5mph 6mph 1014mB
9:00 2670m -4°C -4_6 0cm 7% 6mph 7mph 1014mB
12:00 2633m -4°C -4_5 0cm 4% 5mph 7mph 1015mB
15:00 3341m 0°C 0_4 0cm 1% 4mph 5mph 1015mB
18:00 3567m 3°C 3_6 2cm 24% 6mph 6mph 1014mB
21:00 3571m 3°C 3_6 6cm 100% 6mph 7mph 1013mB
0:00 3429m 1°C 1_3 10cm 100% 3mph 4mph 1014mB
3:00 3008m -2°C -2_2 2cm 100% 2mph 3mph 1017mB
6:00 2820m -4°C -4_3 2cm 97% 3mph 3mph 1018mB
9:00 2849m -3°C -3_2 1cm 100% 2mph 2mph 1018mB
12:00 2866m -3°C -3_2 1cm 100% 2mph 2mph 1019mB
15:00 3201m -1°C -1_4 0cm 100% 4mph 4mph 1019mB
18:00 3469m 2°C 2_5 1cm 100% 5mph 6mph 1017mB
21:00 3637m 2°C 2_8 3cm 100% 8mph 9mph 1015mB
0:00 3703m 2°C 2_9 8cm 100% 9mph 11mph 1015mB
3:00 3031m -2°C -2_6 1cm 10% 6mph 7mph 1019mB
6:00 2829m -3°C -3_4 1cm 5% 4mph 4mph 1021mB
9:00 2724m -4°C -4_3 0cm 0% 3mph 4mph 1021mB
12:00 2686m -3°C -3_4 0cm 0% 4mph 5mph 1022mB
15:00 3421m 1°C 1_5 0cm 0% 5mph 7mph 1020mB
18:00 3798m 6°C 6_7 0cm 0% 7mph 7mph 1018mB
21:00 4008m 6°C 6_10 0cm 5% 10mph 10mph 1016mB
0:00 3966m 6°C 6_10 1cm 50% 10mph 12mph 1015mB
3:00 3628m 0°C 0_5 1cm 25% 5mph 6mph 1019mB
6:00 3115m -1°C -1_3 1cm 13% 3mph 4mph 1021mB
9:00 3043m -2°C -2_3 0cm 0% 3mph 3mph 1020mB
12:00 3009m -1°C -1_3 0cm 0% 3mph 3mph 1022mB
15:00 3692m 4°C 4_2 0cm 0% 2mph 3mph 1021mB
18:00 4032m 8°C 8_5 0cm 0% 5mph 5mph 1019mB
21:00 4188m 8°C 8_7 0cm 97% 7mph 7mph 1017mB
0:00 4202m 8°C 8_5 0cm 84% 5mph 6mph 1017mB
3:00 4146m 2°C 2_0 0cm 5% 0mph 1mph 1020mB
6:00 4095m 1°C 1_3 0cm 3% 3mph 3mph 1021mB
9:00 3750m 0°C 0_4 0cm 34% 4mph 4mph 1021mB
12:00 3712m 1°C 1_4 0cm 62% 4mph 4mph 1022mB
15:00 3937m 6°C 6_5 0cm 99% 5mph 5mph 1020mB
18:00 4161m 10°C 10_9 0cm 99% 9mph 12mph 1017mB
21:00 4281m 10°C 10_13 0cm 95% 13mph 16mph 1015mB
0:00 4207m 8°C 8_8 0cm 97% 8mph 11mph 1014mB
3:00 4232m 3°C 3_4 0cm 100% 4mph 4mph 1017mB
6:00 4145m 2°C 2_4 0cm 100% 4mph 4mph 1018mB
9:00 3857m 0°C 0_4 0cm 95% 4mph 5mph 1017mB
12:00 3736m 2°C 2_4 0cm 96% 4mph 5mph 1018mB
15:00 3950m 6°C 6_6 0cm 70% 6mph 10mph 1016mB
18:00 4133m 10°C 10_15 0cm 38% 15mph 24mph 1015mB
21:00 4225m 10°C 10_19 0cm 35% 19mph 24mph 1013mB
0:00 4260m 9°C 9_16 0cm 47% 16mph 21mph 1013mB
3:00 4195m 2°C 2_3 0cm 36% 3mph 4mph 1017mB
6:00 4146m 1°C 1_1 0cm 55% 1mph 2mph 1019mB
9:00 4077m 0°C 0_3 0cm 46% 3mph 3mph 1019mB
12:00 3845m 1°C 1_5 0cm 23% 5mph 6mph 1020mB
15:00 4128m 7°C 7_6 0cm 0% 6mph 6mph 1018mB
18:00 4261m 11°C 11_11 0cm 0% 11mph 13mph 1016mB
21:00 4392m 11°C 11_15 0cm 1% 15mph 17mph 1013mB
0:00 4368m 11°C 11_13 0cm 27% 13mph 17mph 1013mB
3:00 4301m 3°C 3_2 0cm 76% 2mph 3mph 1016mB
6:00 4293m 2°C 2_3 0cm 46% 3mph 4mph 1017mB
9:00 4219m 1°C 1_4 0cm 0% 4mph 5mph 1018mB
12:00 3847m 2°C 2_4 0cm 1% 4mph 5mph 1019mB
15:00 4110m 7°C 7_4 0cm 94% 4mph 4mph 1018mB
18:00 4278m 11°C 11_9 0cm 97% 9mph 10mph 1016mB
21:00 4442m 11°C 11_13 0cm 100% 13mph 13mph 1014mB
0:00 4432m 11°C 11_8 0cm 100% 8mph 10mph 1013mB
Afternoon 0mm 0 4257m 13°C 13_6 0cm 56% 6mph 7mph 1021mB
Morning 0.078125mm 0 4289m 1°C 1_6 0cm 98% 6mph 10mph 1016mB
Afternoon 1.625mm 5.125 3924m 11°C 11_6 0cm 100% 6mph 13mph 1019mB
Morning 0.901042mm 4.9375 4007m 5°C 5_3 0cm 100% 3mph 6mph 1012mB
Afternoon 0.166667mm 0.125 3800m 7°C 7_1 0cm 100% 1mph 2mph 1013mB
Morning 1.22917mm 0.625 3621m 3°C 3_7 0cm 100% 7mph 12mph 1012mB
Afternoon 1.40104mm 0.0625 3362m 4°C 4_4 11cm 100% 4mph 9mph 1013mB
Morning 1.05729mm 0.75 3681m 1°C 1_5 0cm 100% 5mph 9mph 1011mB
Afternoon 1.90625mm 0.1875 3424m 5°C 5_2 15cm 100% 2mph 3mph 1012mB
Morning 1.04688mm 3 3706m 2°C 2_4 0cm 100% 4mph 7mph 1007mB
Afternoon 0.682292mm 0.75 2773m 4°C 4_4 6cm 93% 4mph 4mph 1010mB
Morning 0.526042mm 4.4375 3788m -2°C -2_2 0cm 86% 2mph 5mph 1006mB

16 day outlook at a glance

Forecast issued: 20/04/2019 06:33:38

Chat

Your comments and questions. In a resort? Let us know what it's like!


Characters left 250

For terms and conditions see Readers Comments on the Cookie and privacy policy page.